GW7021 Weather Reports


time (UTC)temp
C
wind
direction
speed
KPH
gust
KPH
rain 1hr
cm
rain 24hr
cm
rain mn
cm
humidity
%
barometer
mb
20260507174005 17 45 0.0 1.6 0.00 0.00 0.00 71 1018.2
20260507173505 17 28 0.0 1.6 0.00 0.00 0.00 71 1018.2
20260507173006 18 314 0.0 1.6 0.00 0.00 0.00 70 1018.2
20260507172505 18 181 0.0 1.6 0.00 0.00 0.00 68 1018.4
20260507171505 19 339 1.6 3.2 0.00 0.00 0.00 66 1018.3
20260507171005 19 293 1.6 3.2 0.00 0.00 0.00 66 1018.4
20260507170505 19 277 1.6 3.2 0.00 0.00 0.00 64 1018.3
20260507170005 19 323 3.2 4.8 0.00 0.00 0.00 64 1018.3
20260507165505 20 327 3.2 4.8 0.00 0.00 0.00 63 1018.2
20260507165005 20 296 4.8 4.8 0.00 0.00 0.00 63 1018.1
20260507164505 20 306 4.8 6.4 0.00 0.00 0.00 62 1018.1
20260507163505 20 304 8.0 8.0 0.00 0.00 0.00 62 1018.3
20260507163005 20 309 6.4 8.0 0.00 0.00 0.00 60 1018.2
20260507162005 20 312 4.8 4.8 0.00 0.00 0.00 60 1018.0
20260507161505 20 311 3.2 4.8 0.00 0.00 0.00 60 1018.1
20260507161005 20 323 3.2 4.8 0.00 0.00 0.00 58 1018.2
20260507160505 21 310 4.8 6.4 0.00 0.00 0.00 57 1018.0
20260507160005 21 298 4.8 6.4 0.00 0.00 0.00 57 1018.1
20260507155005 22 228 4.8 8.0 0.00 0.00 0.00 55 1018.0
20260507154505 21 225 8.0 11.3 0.00 0.00 0.00 56 1017.9
20260507154005 21 231 9.7 14.5 0.00 0.00 0.00 57 1017.9
20260507153506 21 243 9.7 14.5 0.00 0.00 0.00 57 1018.3
20260507153005 21 248 6.4 9.7 0.00 0.00 0.00 57 1018.3
20260507151505 21 165 8.0 9.7 0.00 0.00 0.00 56 1018.1
20260507151005 21 142 9.7 12.9 0.00 0.00 0.00 56 1017.9
20260507150505 21 150 9.7 12.9 0.00 0.00 0.00 55 1018.0
20260507150006 21 153 9.7 12.9 0.00 0.00 0.00 54 1018.2
20260507145506 21 143 9.7 12.9 0.00 0.00 0.00 54 1018.1
20260507145005 21 143 9.7 11.3 0.00 0.00 0.00 53 1018.1
20260507144505 21 144 9.7 11.3 0.00 0.00 0.00 52 1018.0
20260507143503 22 171 6.4 11.3 0.00 0.00 0.00 51 1018.3
20260507143003 22 167 9.7 12.9 0.00 0.00 0.00 50 1018.2
20260507142503 22 178 9.7 12.9 0.00 0.00 0.00 50 1018.3
20260507142003 22 185 9.7 14.5 0.00 0.00 0.00 50 1018.2
20260507141502 22 184 9.7 14.5 0.00 0.00 0.00 50 1018.3
20260507140503 22 162 9.7 14.5 0.00 0.00 0.00 45 1018.2
20260507140003 22 144 14.5 17.7 0.00 0.00 0.00 48 1018.1
20260507135503 22 154 16.1 17.7 0.00 0.00 0.00 44 1018.0
20260507135003 22 169 16.1 17.7 0.00 0.00 0.00 43 1018.1
20260507134503 22 171 14.5 16.1 0.00 0.00 0.00 42 1018.1
20260507133503 22 156 17.7 19.3 0.00 0.00 0.00 41 1018.1
20260507133003 23 174 17.7 22.5 0.00 0.00 0.00 41 1018.2
20260507132503 22 162 19.3 22.5 0.00 0.00 0.00 42 1018.1
20260507131503 23 165 20.9 25.7 0.00 0.00 0.00 41 1017.9
20260507131003 23 150 20.9 25.7 0.00 0.00 0.00 40 1018.0
20260507130004 23 148 20.9 24.1 0.00 0.00 0.00 41 1018.1
20260507125503 23 162 19.3 25.7 0.00 0.00 0.00 42 1018.1
20260507125004 23 151 19.3 25.7 0.00 0.00 0.00 42 1018.3
20260507124503 23 143 19.3 24.1 0.00 0.00 0.00 46 1018.4
20260507124004 23 143 19.3 24.1 0.00 0.00 0.00 46 1018.4
20260507123503 23 121 19.3 24.1 0.00 0.00 0.00 49 1018.6
20260507123003 23 122 19.3 22.5 0.00 0.00 0.00 50 1018.6
20260507122503 23 152 17.7 20.9 0.00 0.00 0.00 51 1018.5
20260507122004 22 162 17.7 24.1 0.00 0.00 0.00 50 1018.3
20260507121503 22 165 17.7 24.1 0.00 0.00 0.00 48 1018.5
20260507121003 23 155 19.3 22.5 0.00 0.00 0.00 48 1018.6
20260507120004 23 177 22.5 27.4 0.00 0.00 0.00 48 1018.6
20260507115503 23 167 22.5 27.4 0.00 0.00 0.00 47 1018.6
20260507115003 22 154 22.5 27.4 0.00 0.00 0.00 50 1018.6
20260507114503 22 169 20.9 24.1 0.00 0.00 0.00 49 1018.5
20260507114004 22 188 19.3 22.5 0.00 0.00 0.00 48 1018.4
20260507113503 22 182 17.7 20.9 0.00 0.00 0.00 49 1018.5
20260507112503 22 150 17.7 24.1 0.00 0.00 0.00 48 1018.6
20260507112003 22 147 19.3 24.1 0.00 0.00 0.00 45 1018.6
20260507111003 23 144 19.3 24.1 0.00 0.00 0.00 43 1018.5
20260507110503 23 152 19.3 27.4 0.00 0.00 0.00 42 1018.5
20260507110003 23 147 20.9 27.4 0.00 0.00 0.00 40 1018.7
20260507105503 23 146 20.9 24.1 0.00 0.00 0.00 41 1018.8
20260507104503 23 152 19.3 24.1 0.00 0.00 0.00 40 1018.6
20260507103504 23 134 20.9 27.4 0.00 0.00 0.00 40 1018.7
20260507102504 23 148 19.3 24.1 0.00 0.00 0.00 42 1018.9
20260507102003 23 138 20.9 24.1 0.00 0.00 0.00 42 1018.8
20260507101503 23 139 20.9 24.1 0.00 0.00 0.00 40 1018.7
20260507101003 23 148 19.3 24.1 0.00 0.00 0.00 41 1018.8
20260507100503 23 152 19.3 24.1 0.00 0.00 0.00 40 1018.7
20260507100004 23 145 19.3 24.1 0.00 0.00 0.00 39 1018.8
20260507095003 23 137 19.3 24.1 0.00 0.00 0.00 40 1018.4
20260507094503 23 144 19.3 22.5 0.00 0.00 0.00 39 1018.5
20260507093503 23 168 16.1 19.3 0.00 0.00 0.00 40 1018.3
20260507092503 23 181 16.1 22.5 0.00 0.00 0.00 40 1018.4
20260507092004 23 162 17.7 19.3 0.00 0.00 0.00 40 1018.5
20260507091004 24 172 19.3 22.5 0.00 0.00 0.00 37 1018.4
20260507090504 25 167 19.3 22.5 0.00 0.00 0.00 35 1018.3
20260507090004 25 165 17.7 20.9 0.00 0.00 0.00 34 1018.3
20260507085503 25 151 19.3 24.1 0.00 0.00 0.00 36 1018.3
20260507085003 24 133 19.3 24.1 0.00 0.00 0.00 35 1018.4
20260507084503 25 148 17.7 20.9 0.00 0.00 0.00 35 1018.3
20260507083503 25 173 14.5 17.7 0.00 0.00 0.00 35 1018.3
20260507082503 24 156 14.5 17.7 0.00 0.00 0.00 36 1018.7
20260507081503 23 136 14.5 17.7 0.00 0.00 0.00 36 1018.4
20260507080504 23 150 11.3 12.9 0.00 0.00 0.00 37 1018.4
20260507080004 23 163 11.3 12.9 0.00 0.00 0.00 37 1018.5
20260507075503 23 148 11.3 14.5 0.00 0.00 0.00 40 1018.5
20260507075004 23 158 12.9 14.5 0.00 0.00 0.00 38 1018.5
20260507074004 23 169 11.3 12.9 0.00 0.00 0.00 37 1018.3
20260507073504 23 149 11.3 12.9 0.00 0.00 0.00 38 1018.2
20260507073004 23 170 12.9 16.1 0.00 0.00 0.00 39 1018.2
20260507072503 23 187 12.9 16.1 0.00 0.00 0.00 40 1018.4
20260507072003 22 177 12.9 16.1 0.00 0.00 0.00 41 1018.4
20260507071503 22 183 11.3 12.9 0.00 0.00 0.00 41 1018.4
20260507070008 22 200 6.4 8.0 0.00 0.00 0.00 42 1018.2
20260507065504 22 191 6.4 8.0 0.00 0.00 0.00 42 1018.2
20260507065004 22 178 4.8 6.4 0.00 0.00 0.00 46 1018.3
20260507064003 21 227 4.8 6.4 0.00 0.00 0.00 49 1018.4
20260507063503 21 225 4.8 6.4 0.00 0.00 0.00 50 1018.6
20260507063003 21 217 4.8 6.4 0.00 0.00 0.00 49 1018.5
20260507062004 20 163 4.8 4.8 0.00 0.00 0.00 52 1018.4
20260507061504 20 146 4.8 4.8 0.00 0.00 0.00 52 1018.3
20260507061004 19 149 4.8 4.8 0.00 0.00 0.00 57 1018.3
20260507060504 18 143 4.8 4.8 0.00 0.00 0.00 56 1018.4
20260507060003 18 131 3.2 4.8 0.00 0.00 0.00 56 1018.6
20260507055004 18 242 3.2 3.2 0.00 0.00 0.00 58 1018.4
20260507054504 17 257 3.2 3.2 0.00 0.00 0.00 61 1018.3
20260507054004 17 249 3.2 3.2 0.00 0.00 0.00 61 1018.2
20260507053503 17 231 3.2 4.8 0.00 0.00 0.00 64 1018.3
20260507052004 16 225 0.0 1.6 0.00 0.00 0.00 63 1018.4
20260507051504 16 225 0.0 1.6 0.00 0.00 0.00 70 1018.4
20260507051004 15 0 0.0 0.0 0.00 0.00 0.00 73 1018.3
20260507050504 15 225 0.0 3.2 0.00 0.00 0.00 75 1018.2
20260507050005 14 238 1.6 3.2 0.00 0.00 0.00 75 1018.1
20260507045004 13 270 1.6 3.2 0.00 0.00 0.00 77 1018.0
20260507044504 13 135 0.0 1.6 0.00 0.00 0.00 76 1017.8
20260507044004 12 202 1.6 3.2 0.00 0.00 0.00 77 1017.7
20260507043504 12 205 1.6 3.2 0.00 0.00 0.00 79 1017.7
20260507042504 12 329 1.6 3.2 0.00 0.00 0.00 79 1017.5
20260507042004 11 357 3.2 3.2 0.00 0.00 0.00 80 1017.4
20260507041504 11 27 3.2 3.2 0.00 0.00 0.00 78 1017.3
20260507041004 11 43 3.2 3.2 0.00 0.00 0.00 79 1017.2
20260507040504 11 45 3.2 3.2 0.00 0.00 0.00 81 1017.1
20260507040004 11 47 3.2 3.2 0.00 0.00 0.00 84 1017.1
20260507035504 10 68 3.2 4.8 0.00 0.00 0.00 86 1017.0
20260507035004 10 86 3.2 4.8 0.00 0.00 0.00 87 1017.0
20260507034505 9 84 3.2 6.4 0.00 0.00 0.00 87 1017.1
20260507034004 9 110 4.8 6.4 0.00 0.00 0.00 86 1017.1
20260507033504 9 122 4.8 6.4 0.00 0.00 0.00 86 1017.0
20260507033004 9 119 3.2 6.4 0.00 0.00 0.00 85 1017.0
20260507032504 9 143 3.2 4.8 0.00 0.00 0.00 84 1017.2
20260507032005 9 154 4.8 4.8 0.00 0.00 0.00 83 1017.3
20260507031504 9 161 1.6 4.8 0.00 0.00 0.00 82 1017.4
20260507031004 10 190 0.0 3.2 0.00 0.00 0.00 82 1017.4
20260507030504 10 60 1.6 3.2 0.00 0.00 0.00 82 1017.4
20260507030004 10 284 1.6 3.2 0.00 0.00 0.00 81 1017.2
20260507025504 10 291 3.2 3.2 0.00 0.00 0.00 80 1017.0
20260507025005 11 329 3.2 3.2 0.00 0.00 0.00 80 1017.0
20260507024504 11 358 3.2 3.2 0.00 0.00 0.00 81 1017.1
20260507024004 11 17 3.2 3.2 0.00 0.00 0.00 82 1017.0
20260507023504 10 35 3.2 3.2 0.00 0.00 0.00 82 1016.9
20260507023004 10 81 3.2 4.8 0.00 0.00 0.00 81 1016.8
20260507022504 11 119 3.2 4.8 0.00 0.00 0.00 82 1016.6
20260507022004 11 119 4.8 6.4 0.00 0.00 0.00 83 1016.6
20260507021504 10 118 3.2 6.4 0.00 0.00 0.00 85 1016.8
20260507021004 10 76 3.2 3.2 0.00 0.00 0.00 85 1016.8
20260507020005 10 90 3.2 4.8 0.00 0.00 0.00 84 1017.0
20260507015504 10 50 1.6 3.2 0.00 0.00 0.00 83 1017.0
20260507015004 10 39 1.6 3.2 0.00 0.00 0.00 85 1017.0
20260507014504 10 75 3.2 4.8 0.00 0.00 0.00 84 1016.9
20260507013504 10 87 3.2 3.2 0.00 0.00 0.00 83 1016.8
20260507013004 10 104 3.2 3.2 0.00 0.00 0.00 84 1017.0
20260507012504 10 109 3.2 3.2 0.00 0.00 0.00 83 1016.9
20260507012004 10 91 1.6 3.2 0.00 0.00 0.00 81 1017.0
20260507011504 10 58 1.6 3.2 0.00 0.00 0.00 81 1017.0
20260507010504 11 0 0.0 0.0 0.00 0.00 0.00 80 1017.0
20260507010004 11 72 1.6 3.2 0.00 0.00 0.00 81 1016.9
20260507005504 11 78 3.2 4.8 0.00 0.00 0.00 83 1016.7
20260507005005 10 83 3.2 4.8 0.00 0.00 0.00 83 1016.7
20260507004505 10 64 3.2 3.2 0.00 0.00 0.00 82 1016.8
20260507004005 11 57 3.2 3.2 0.00 0.00 0.00 83 1017.0
20260507003004 10 1 0.0 3.2 0.00 0.00 0.00 84 1016.7
20260507002504 10 33 1.6 3.2 0.00 0.00 0.00 81 1016.8
20260507001005 11 64 3.2 4.8 0.00 0.00 0.00 82 1016.8
20260507000505 10 66 3.2 4.8 0.00 0.00 0.00 82 1016.8
20260507000005 10 71 1.6 3.2 0.00 0.00 0.00 82 1016.8
20260506235504 11 25 1.6 3.2 0.00 0.00 0.00 80 1016.9
20260506235004 11 16 3.2 3.2 0.00 0.00 0.00 78 1016.8
20260506234504 12 15 3.2 3.2 0.00 0.00 0.00 79 1016.8
20260506234005 11 39 3.2 3.2 0.00 0.00 0.00 81 1016.8
20260506233505 11 74 3.2 4.8 0.00 0.00 0.00 82 1016.7
20260506233004 11 95 3.2 4.8 0.00 0.00 0.00 82 1016.7
20260506232504 11 85 3.2 3.2 0.00 0.00 0.00 82 1016.6
20260506232004 11 97 3.2 3.2 0.00 0.00 0.00 82 1016.9
20260506231504 11 125 3.2 3.2 0.00 0.00 0.00 83 1017.0
20260506231005 11 137 3.2 4.8 0.00 0.00 0.00 84 1016.9
20260506230504 10 130 1.6 4.8 0.00 0.00 0.00 83 1016.8
20260506230004 10 101 1.6 3.2 0.00 0.00 0.00 82 1017.1
20260506225504 11 98 3.2 3.2 0.00 0.00 0.00 81 1017.1
20260506225004 11 91 1.6 3.2 0.00 0.00 0.00 80 1017.0
20260506224004 12 32 3.2 4.8 0.00 0.00 0.00 81 1017.1
20260506223004 11 109 4.8 6.4 0.00 0.00 0.00 81 1017.1
20260506222504 11 132 4.8 6.4 0.00 0.00 0.00 81 1017.1
20260506221504 12 198 1.6 3.2 0.00 0.00 0.00 79 1017.3
20260506220505 12 35 3.2 3.2 0.00 0.00 0.00 74 1017.5
20260506220005 12 22 1.6 3.2 0.00 0.00 0.00 74 1017.4
20260506215504 12 347 1.6 6.4 0.00 0.00 0.00 76 1017.5
20260506214505 12 41 3.2 6.4 0.00 0.00 0.00 78 1017.4
20260506213005 12 79 3.2 3.2 0.00 0.00 0.00 80 1017.4
20260506212504 12 97 4.8 4.8 0.00 0.00 0.00 81 1017.4
20260506212004 12 106 4.8 4.8 0.00 0.00 0.00 80 1017.4
20260506211504 12 120 3.2 4.8 0.00 0.00 0.00 82 1017.3
20260506211005 11 126 3.2 3.2 0.00 0.00 0.00 82 1017.4
20260506210504 11 115 1.6 3.2 0.00 0.00 0.00 82 1017.5
20260506210009 11 100 0.0 3.2 0.00 0.00 0.00 81 1017.5
20260506205504 12 102 0.0 3.2 0.00 0.00 0.00 81 1017.6
20260506205004 12 173 0.0 3.2 0.00 0.00 0.00 81 1017.6
20260506204504 12 147 1.6 3.2 0.00 0.00 0.00 81 1017.5
20260506204007 12 139 1.6 3.2 0.00 0.00 0.00 80 1017.6
20260506203507 12 135 1.6 3.2 0.00 0.00 0.00 77 1017.5
20260506202505 12 191 1.6 3.2 0.00 0.00 0.00 74 1017.7
20260506202005 13 280 1.6 3.2 0.00 0.00 0.00 73 1017.6
20260506201505 13 308 1.6 3.2 0.00 0.00 0.00 74 1017.6
20260506195504 14 45 3.2 3.2 0.00 0.00 0.00 70 1017.7
20260506195004 14 45 1.6 3.2 0.00 0.00 0.00 69 1017.5
20260506194005 14 51 3.2 3.2 0.00 0.00 0.00 71 1017.5
20260506193504 14 49 3.2 3.2 0.00 0.00 0.00 70 1017.3
20260506193004 14 41 3.2 3.2 0.00 0.00 0.00 70 1017.3
20260506192504 14 40 3.2 3.2 0.00 0.00 0.00 70 1017.2
20260506192005 14 49 1.6 3.2 0.00 0.00 0.00 71 1017.5
20260506191505 14 80 1.6 3.2 0.00 0.00 0.00 72 1017.4
20260506191005 14 108 3.2 3.2 0.00 0.00 0.00 71 1017.2
20260506190505 15 129 3.2 3.2 0.00 0.00 0.00 71 1017.2
20260506190006 15 131 3.2 3.2 0.00 0.00 0.00 71 1017.1
20260506185505 15 133 3.2 3.2 0.00 0.00 0.00 70 1017.1
20260506185005 15 137 1.6 3.2 0.00 0.00 0.00 68 1017.0
20260506184505 15 156 1.6 3.2 0.00 0.00 0.00 67 1017.0
20260506184005 15 116 1.6 4.8 0.00 0.00 0.00 69 1017.0
20260506183505 16 101 3.2 4.8 0.00 0.00 0.00 66 1016.9
20260506183005 16 112 3.2 4.8 0.00 0.00 0.00 67 1016.9
20260506182505 15 130 3.2 4.8 0.00 0.00 0.00 69 1016.8
20260506182006 15 134 3.2 4.8 0.00 0.00 0.00 70 1016.7
20260506181505 16 128 3.2 4.8 0.00 0.00 0.00 69 1016.7
20260506180505 17 34 4.8 6.4 0.00 0.00 0.00 58 1016.6
20260506180006 17 43 4.8 6.4 0.00 0.00 0.00 57 1016.7
20260506175505 17 45 6.4 6.4 0.00 0.00 0.00 58 1016.7
20260506175005 17 46 6.4 6.4 0.00 0.00 0.00 58 1016.7
20260506174505 17 28 4.8 6.4 0.00 0.00 0.00 60 1016.5